TimeCDT,TemperatureF,Dew PointF,Humidity,Sea Level PressureIn,VisibilityMPH,Wind Direction,Wind SpeedMPH,Gust SpeedMPH,PrecipitationIn,Events,Conditions,WindDirDegrees,DateUTC
12:53 AM,54.0,46.9,77,30.08,10.0,Calm,Calm,-,N/A,,Clear,0,2013-09-14 05:53:00
1:53 AM,55.0,46.9,74,30.08,10.0,Calm,Calm,-,N/A,,Clear,0,2013-09-14 06:53:00
2:53 AM,57.9,45.0,62,30.09,10.0,SE,6.9,-,N/A,,Clear,130,2013-09-14 07:53:00
3:53 AM,57.0,45.0,64,30.08,10.0,Calm,Calm,-,N/A,,Clear,0,2013-09-14 08:53:00
4:53 AM,55.9,45.0,67,30.09,10.0,South,4.6,-,N/A,,Clear,170,2013-09-14 09:53:00
5:53 AM,50.0,45.0,83,30.10,10.0,Calm,Calm,-,N/A,,Clear,0,2013-09-14 10:53:00
6:53 AM,48.0,45.0,89,30.10,10.0,NW,4.6,-,N/A,,Clear,320,2013-09-14 11:53:00
7:53 AM,54.0,48.0,80,30.12,10.0,Calm,Calm,-,N/A,,Clear,0,2013-09-14 12:53:00
8:53 AM,61.0,46.9,60,30.12,10.0,SSE,6.9,-,N/A,,Clear,160,2013-09-14 13:53:00
9:53 AM,66.0,48.0,52,30.11,10.0,South,9.2,-,N/A,,Clear,180,2013-09-14 14:53:00
10:53 AM,70.0,50.0,49,30.10,10.0,South,9.2,-,N/A,,Clear,170,2013-09-14 15:53:00
11:53 AM,72.0,50.0,46,30.08,10.0,SSE,9.2,-,N/A,,Clear,160,2013-09-14 16:53:00
12:53 PM,75.0,50.0,41,30.06,10.0,South,9.2,18.4,N/A,,Clear,180,2013-09-14 17:53:00
1:53 PM,75.9,50.0,40,30.03,10.0,SSE,11.5,17.3,N/A,,Clear,160,2013-09-14 18:53:00
2:53 PM,78.1,50.0,37,30.00,10.0,SSE,15.0,19.6,N/A,,Clear,150,2013-09-14 19:53:00
3:53 PM,78.1,48.9,36,29.98,10.0,SSE,11.5,-,N/A,,Clear,160,2013-09-14 20:53:00
4:53 PM,75.9,50.0,40,29.96,10.0,SSE,12.7,-,N/A,,Clear,160,2013-09-14 21:53:00
5:53 PM,75.9,51.1,42,29.95,10.0,SSE,9.2,-,N/A,,Clear,160,2013-09-14 22:53:00
6:53 PM,73.9,51.1,45,29.95,10.0,SSE,10.4,-,N/A,,Clear,160,2013-09-14 23:53:00
7:53 PM,70.0,52.0,53,29.94,10.0,SSE,6.9,-,N/A,,Clear,150,2013-09-15 00:53:00
8:53 PM,68.0,52.0,56,29.94,10.0,South,8.1,-,N/A,,Clear,170,2013-09-15 01:53:00
9:53 PM,66.0,53.1,63,29.94,10.0,South,5.8,-,N/A,,Clear,180,2013-09-15 02:53:00
10:53 PM,66.0,52.0,60,29.94,10.0,SSE,8.1,-,N/A,,Clear,160,2013-09-15 03:53:00
11:53 PM,64.9,53.1,65,29.94,10.0,South,5.8,-,N/A,,Clear,190,2013-09-15 04:53:00